TimeCST,TemperatureF,Dew PointF,Humidity,Sea Level PressureIn,VisibilityMPH,Wind Direction,Wind SpeedMPH,Gust SpeedMPH,PrecipitationIn,Events,Conditions,WindDirDegrees,DateUTC
12:53 AM,37.9,33.1,83,29.92,10.0,NW,15.0,-,N/A,,Overcast,310,2012-12-26 06:53:00
1:01 AM,37.4,33.8,87,29.91,10.0,NW,16.1,23.0,N/A,,Overcast,310,2012-12-26 07:01:00
1:24 AM,37.4,33.8,87,29.92,10.0,WNW,16.1,21.9,N/A,,Overcast,300,2012-12-26 07:24:00
1:53 AM,37.9,32.0,79,29.95,10.0,NW,15.0,23.0,N/A,,Overcast,310,2012-12-26 07:53:00
2:37 AM,37.4,32.0,81,29.95,10.0,NW,17.3,24.2,N/A,,Overcast,310,2012-12-26 08:37:00
2:53 AM,37.9,33.1,83,29.97,10.0,NW,12.7,24.2,N/A,,Overcast,310,2012-12-26 08:53:00
3:17 AM,37.4,32.0,81,29.96,10.0,WNW,16.1,24.2,N/A,,Overcast,300,2012-12-26 09:17:00
3:53 AM,37.0,32.0,82,29.99,10.0,NW,20.7,25.3,N/A,,Scattered Clouds,310,2012-12-26 09:53:00
4:17 AM,37.4,32.0,81,29.98,10.0,NW,19.6,23.0,N/A,,Overcast,320,2012-12-26 10:17:00
4:53 AM,37.0,32.0,82,30.01,10.0,NW,15.0,-,N/A,,Overcast,310,2012-12-26 10:53:00
5:53 AM,37.0,32.0,82,30.04,10.0,WNW,15.0,21.9,N/A,,Overcast,300,2012-12-26 11:53:00
6:53 AM,36.0,30.9,82,30.08,10.0,WNW,15.0,-,N/A,,Overcast,300,2012-12-26 12:53:00
7:31 AM,35.6,30.2,81,30.09,8.0,WNW,10.4,17.3,N/A,,Overcast,290,2012-12-26 13:31:00
7:53 AM,35.1,30.9,85,30.12,7.0,WNW,13.8,-,N/A,,Overcast,300,2012-12-26 13:53:00
8:53 AM,36.0,30.9,82,30.14,7.0,NW,11.5,-,N/A,,Overcast,310,2012-12-26 14:53:00
9:53 AM,35.1,30.9,85,30.19,7.0,NW,13.8,18.4,N/A,,Overcast,310,2012-12-26 15:53:00
10:53 AM,36.0,30.9,82,30.20,9.0,NW,11.5,-,N/A,,Overcast,320,2012-12-26 16:53:00
11:53 AM,36.0,30.9,82,30.19,9.0,NW,11.5,-,N/A,,Overcast,320,2012-12-26 17:53:00
12:53 PM,35.1,30.0,82,30.18,10.0,WNW,11.5,-,N/A,,Overcast,300,2012-12-26 18:53:00
1:53 PM,35.1,30.0,82,30.16,10.0,WNW,11.5,-,N/A,,Overcast,300,2012-12-26 19:53:00
2:03 PM,35.6,30.2,81,30.13,10.0,NNW,11.5,-,N/A,,Overcast,330,2012-12-26 20:03:00
2:53 PM,37.0,30.0,76,30.16,10.0,NW,9.2,-,N/A,,Mostly Cloudy,320,2012-12-26 20:53:00
3:16 PM,37.4,30.2,75,30.14,10.0,NW,10.4,-,N/A,,Scattered Clouds,320,2012-12-26 21:16:00
3:53 PM,37.9,30.0,73,30.17,10.0,NW,6.9,-,N/A,,Clear,320,2012-12-26 21:53:00
4:53 PM,37.0,28.9,73,30.16,10.0,NNW,6.9,-,N/A,,Clear,340,2012-12-26 22:53:00
5:53 PM,35.1,28.9,78,30.18,10.0,NNE,4.6,-,N/A,,Clear,20,2012-12-26 23:53:00
6:53 PM,35.1,28.9,78,30.19,10.0,Calm,Calm,-,N/A,,Clear,0,2012-12-27 00:53:00
7:53 PM,34.0,28.9,82,30.19,10.0,Calm,Calm,-,N/A,,Clear,0,2012-12-27 01:53:00
8:53 PM,30.9,28.0,89,30.20,10.0,Calm,Calm,-,N/A,,Clear,0,2012-12-27 02:53:00
9:53 PM,30.9,28.0,89,30.21,10.0,Calm,Calm,-,N/A,,Clear,0,2012-12-27 03:53:00
10:53 PM,28.9,27.0,92,30.19,9.0,East,4.6,-,N/A,,Clear,80,2012-12-27 04:53:00
11:53 PM,30.0,28.9,96,30.18,8.0,Calm,Calm,-,N/A,,Clear,0,2012-12-27 05:53:00